AAR244 KDFW-KSEA

Flight info

Callsign AAR244
Flight time N/A
Altitude 40000
Route HUDAD2 HUDAD DCT PNH DCT ALS DCT JNC J15 BOI DCT PDT CHINS5
Aircraft B744/H-SDE1E2E3FGHIJ3J5M1P1RWXYZ/LB1D1

Departure

Time N/A
Airport Dallas Fort Worth International Airport (KDFW)

Arrival

Time 2026-05-06 04:37
Airport Seattle–Tacoma International Airport (KSEA)
Time Latitude Longitude Altitude Speed Heading
2026-05-06 01:42 35.34391 -101.89948 39915 ft 398 kts 290°
2026-05-06 01:42 35.37431 -101.95610 39918 ft 398 kts 290°
2026-05-06 01:43 35.40471 -102.01273 39919 ft 398 kts 290°
2026-05-06 01:43 35.43538 -102.06955 39923 ft 401 kts 291°
2026-05-06 01:44 35.46634 -102.12642 39925 ft 401 kts 290°
2026-05-06 01:44 35.49710 -102.18332 39927 ft 399 kts 290°
2026-05-06 01:45 35.52763 -102.24003 39929 ft 398 kts 290°
2026-05-06 01:45 35.55813 -102.29685 39930 ft 398 kts 290°
2026-05-06 01:46 35.58861 -102.35376 39931 ft 399 kts 290°
2026-05-06 01:46 35.61894 -102.41051 39931 ft 400 kts 290°
2026-05-06 01:47 35.64947 -102.46773 39931 ft 400 kts 290°
2026-05-06 01:47 35.67995 -102.52495 39931 ft 400 kts 290°
2026-05-06 01:48 35.71072 -102.58208 39923 ft 406 kts 294°
2026-05-06 01:48 35.73055 -102.60788 39911 ft 429 kts 306°
2026-05-06 01:48 35.75393 -102.63115 39906 ft 433 kts 307°
2026-05-06 01:49 35.80112 -102.67740 39933 ft 434 kts 306°
2026-05-06 01:49 35.84769 -102.72435 39931 ft 420 kts 299°
2026-05-06 01:50 35.86534 -102.75164 39939 ft 399 kts 289°
2026-05-06 01:50 35.88032 -102.78045 39937 ft 399 kts 289°
2026-05-06 01:50 35.90960 -102.83820 39934 ft 401 kts 289°
2026-05-06 01:51 35.93922 -102.89697 39933 ft 400 kts 289°
2026-05-06 01:51 35.96859 -102.95528 39932 ft 400 kts 289°
2026-05-06 01:52 35.99798 -103.01369 39931 ft 402 kts 289°
2026-05-06 01:52 36.02754 -103.07251 39929 ft 405 kts 289°
2026-05-06 01:53 36.05722 -103.13168 39927 ft 405 kts 289°
2026-05-06 01:53 36.08665 -103.19046 39924 ft 405 kts 289°
2026-05-06 01:54 36.11625 -103.24966 39924 ft 405 kts 289°
2026-05-06 01:54 36.14580 -103.30888 39924 ft 405 kts 289°
2026-05-06 01:55 36.17534 -103.36818 39924 ft 404 kts 289°
2026-05-06 01:55 36.20481 -103.42742 39922 ft 404 kts 289°
2026-05-06 01:56 36.23435 -103.48693 39922 ft 406 kts 289°
2026-05-06 01:56 36.26392 -103.54660 39921 ft 406 kts 289°
2026-05-06 01:57 36.29338 -103.60617 39920 ft 405 kts 289°
2026-05-06 01:57 36.32283 -103.66579 39917 ft 405 kts 288°
2026-05-06 01:58 36.35223 -103.72544 39913 ft 405 kts 288°
2026-05-06 01:58 36.38163 -103.78517 39910 ft 405 kts 288°
2026-05-06 01:59 36.41098 -103.84492 39908 ft 405 kts 288°
2026-05-06 01:59 36.44029 -103.90470 39914 ft 405 kts 288°
2026-05-06 02:00 36.46959 -103.96455 39920 ft 405 kts 288°
2026-05-06 02:00 36.49883 -104.02440 39918 ft 406 kts 288°
2026-05-06 02:01 36.52813 -104.08448 39915 ft 407 kts 289°
2026-05-06 02:01 36.55750 -104.14481 39911 ft 408 kts 289°
2026-05-06 02:02 36.58688 -104.20525 39907 ft 408 kts 289°
2026-05-06 02:02 36.61128 -104.25554 39903 ft 409 kts 289°
2026-05-06 02:03 36.64071 -104.31630 39899 ft 411 kts 289°
2026-05-06 02:03 36.67023 -104.37735 39903 ft 412 kts 289°
2026-05-06 02:04 36.69976 -104.43855 39931 ft 413 kts 289°
2026-05-06 02:04 36.72934 -104.49994 39931 ft 414 kts 289°
2026-05-06 02:05 36.75897 -104.56156 39930 ft 414 kts 289°
2026-05-06 02:05 36.78859 -104.62329 39935 ft 415 kts 289°
2026-05-06 02:06 36.81828 -104.68526 39942 ft 416 kts 289°
2026-05-06 02:06 36.84794 -104.74729 39952 ft 416 kts 289°
2026-05-06 02:07 36.87762 -104.80946 39961 ft 417 kts 289°
2026-05-06 02:07 36.90739 -104.87196 39974 ft 420 kts 289°
2026-05-06 02:08 36.93724 -104.93475 39986 ft 420 kts 289°
2026-05-06 02:08 36.96707 -104.99760 39997 ft 421 kts 289°
2026-05-06 02:09 36.99694 -105.06067 40005 ft 422 kts 289°
2026-05-06 02:09 37.02682 -105.12387 40014 ft 422 kts 290°
2026-05-06 02:10 37.05672 -105.18724 40015 ft 423 kts 290°
2026-05-06 02:10 37.08663 -105.25076 40012 ft 423 kts 290°
2026-05-06 02:11 37.11651 -105.31433 40022 ft 424 kts 290°
2026-05-06 02:11 37.14651 -105.37831 40021 ft 427 kts 290°
2026-05-06 02:12 37.17656 -105.44249 40015 ft 427 kts 290°
2026-05-06 02:12 37.20670 -105.50686 40005 ft 428 kts 290°
2026-05-06 02:13 37.23671 -105.57145 39991 ft 429 kts 290°
2026-05-06 02:13 37.26668 -105.63627 39969 ft 430 kts 290°
2026-05-06 02:14 37.29671 -105.70140 39946 ft 431 kts 290°
2026-05-06 02:14 37.32679 -105.76675 39926 ft 432 kts 290°
2026-05-06 02:15 37.35827 -105.83140 39910 ft 437 kts 295°
2026-05-06 02:15 37.39445 -105.89279 39902 ft 442 kts 297°
2026-05-06 02:16 37.43185 -105.95447 39901 ft 444 kts 297°
2026-05-06 02:16 37.46909 -106.01662 39907 ft 445 kts 297°
2026-05-06 02:17 37.50636 -106.07921 39913 ft 448 kts 297°
2026-05-06 02:17 37.54367 -106.14208 39919 ft 447 kts 297°
2026-05-06 02:18 37.58117 -106.20469 39918 ft 447 kts 297°
2026-05-06 02:18 37.61862 -106.26731 39914 ft 447 kts 297°
2026-05-06 02:19 37.65595 -106.33014 39906 ft 448 kts 297°
2026-05-06 02:19 37.69319 -106.39306 39902 ft 447 kts 297°
2026-05-06 02:20 37.74899 -106.48763 39912 ft 448 kts 297°
2026-05-06 02:21 37.78614 -106.55077 39927 ft 448 kts 297°
2026-05-06 02:21 37.82330 -106.61405 39939 ft 448 kts 297°
2026-05-06 02:22 37.86044 -106.67743 39920 ft 448 kts 297°
2026-05-06 02:22 37.89757 -106.74090 39926 ft 449 kts 297°
2026-05-06 02:23 37.93469 -106.80450 39930 ft 449 kts 297°
2026-05-06 02:23 37.97183 -106.86824 39945 ft 450 kts 297°
2026-05-06 02:24 38.00905 -106.93225 39944 ft 451 kts 298°
2026-05-06 02:24 38.04635 -106.99655 39928 ft 454 kts 299°
2026-05-06 02:25 38.08384 -107.06126 39920 ft 456 kts 299°
2026-05-06 02:25 38.12139 -107.12620 39915 ft 457 kts 299°
2026-05-06 02:26 38.15894 -107.19128 39911 ft 457 kts 300°
2026-05-06 02:26 38.19617 -107.25592 39908 ft 457 kts 300°
2026-05-06 02:27 38.23399 -107.32175 39904 ft 457 kts 300°
2026-05-06 02:27 38.27154 -107.38720 39900 ft 458 kts 300°
2026-05-06 02:28 38.30901 -107.45267 39896 ft 458 kts 300°
2026-05-06 02:28 38.34654 -107.51837 39890 ft 459 kts 300°
2026-05-06 02:29 38.38404 -107.58415 39880 ft 459 kts 300°
2026-05-06 02:29 38.42155 -107.65008 39870 ft 459 kts 300°
2026-05-06 02:30 38.45906 -107.71615 39858 ft 460 kts 300°
2026-05-06 02:30 38.49656 -107.78232 39848 ft 460 kts 300°
2026-05-06 02:31 38.53402 -107.84858 39838 ft 460 kts 300°
2026-05-06 02:31 38.57138 -107.91478 39837 ft 460 kts 300°
2026-05-06 02:32 38.60873 -107.98110 39826 ft 460 kts 300°
2026-05-06 02:32 38.64604 -108.04751 39806 ft 461 kts 300°
2026-05-06 02:33 38.68352 -108.11433 39787 ft 462 kts 301°
2026-05-06 02:33 38.69592 -108.13646 39784 ft 463 kts 301°
2026-05-06 02:34 38.75846 -108.24834 39799 ft 463 kts 301°
2026-05-06 02:34 38.79585 -108.31543 39803 ft 462 kts 301°
2026-05-06 02:35 38.83319 -108.38256 39810 ft 463 kts 301°
2026-05-06 02:35 38.87053 -108.44982 39818 ft 463 kts 301°
2026-05-06 02:36 38.90814 -108.51704 39826 ft 464 kts 301°
2026-05-06 02:36 38.94545 -108.58461 39845 ft 464 kts 301°
2026-05-06 02:37 38.98269 -108.65233 39855 ft 463 kts 301°
2026-05-06 02:37 39.01973 -108.72008 39867 ft 463 kts 301°
2026-05-06 02:38 39.05690 -108.78768 39894 ft 464 kts 302°
2026-05-06 02:38 39.09542 -108.85460 39927 ft 468 kts 304°
2026-05-06 02:39 39.13481 -108.92109 39969 ft 467 kts 304°
2026-05-06 02:39 39.17391 -108.98769 39990 ft 465 kts 304°
2026-05-06 02:40 39.21286 -109.05449 39994 ft 465 kts 304°
2026-05-06 02:40 39.25175 -109.12121 39968 ft 466 kts 304°
2026-05-06 02:41 39.29065 -109.18734 39976 ft 464 kts 305°
2026-05-06 02:41 39.32970 -109.25387 39952 ft 465 kts 304°
2026-05-06 02:42 39.36862 -109.32068 39962 ft 466 kts 305°
2026-05-06 02:42 39.40753 -109.38764 39950 ft 463 kts 305°
2026-05-06 02:43 39.44612 -109.45425 39943 ft 466 kts 305°
2026-05-06 02:43 39.48499 -109.52161 39932 ft 466 kts 306°
2026-05-06 02:44 39.52376 -109.58895 39918 ft 465 kts 305°
2026-05-06 02:44 39.56248 -109.65622 39907 ft 466 kts 306°
2026-05-06 02:45 39.60106 -109.72351 39907 ft 464 kts 306°
2026-05-06 02:45 39.63962 -109.79089 39889 ft 465 kts 306°
2026-05-06 02:46 39.67170 -109.84694 39892 ft 466 kts 306°
2026-05-06 02:46 39.71029 -109.91455 39879 ft 464 kts 306°
2026-05-06 02:47 39.74868 -109.98204 39901 ft 465 kts 306°
2026-05-06 02:47 39.78722 -110.04978 39900 ft 466 kts 306°
2026-05-06 02:48 39.82554 -110.11747 39911 ft 464 kts 306°
2026-05-06 02:48 39.86378 -110.18510 39896 ft 464 kts 306°
2026-05-06 02:49 39.90197 -110.25304 39918 ft 465 kts 306°
2026-05-06 02:49 39.94033 -110.32106 39923 ft 466 kts 306°
2026-05-06 02:50 39.97870 -110.38916 39899 ft 466 kts 306°
2026-05-06 02:50 40.01674 -110.45714 39920 ft 463 kts 306°
2026-05-06 02:51 40.05476 -110.52503 39924 ft 463 kts 306°
2026-05-06 02:51 40.09277 -110.59307 39926 ft 463 kts 306°
2026-05-06 02:52 40.13046 -110.66076 39934 ft 464 kts 307°
2026-05-06 02:52 40.16860 -110.72930 39925 ft 464 kts 306°
2026-05-06 02:53 40.20643 -110.79747 39918 ft 462 kts 307°
2026-05-06 02:53 40.24380 -110.86510 39928 ft 461 kts 307°
2026-05-06 02:54 40.28158 -110.93358 39902 ft 461 kts 307°
2026-05-06 02:54 40.31907 -111.00162 39941 ft 461 kts 307°
2026-05-06 02:55 40.35643 -111.06949 39912 ft 461 kts 307°
2026-05-06 02:55 40.39370 -111.13743 39916 ft 458 kts 307°
2026-05-06 02:56 40.43103 -111.20565 39914 ft 462 kts 307°
2026-05-06 02:56 40.46829 -111.27390 39924 ft 459 kts 307°
2026-05-06 02:57 40.50540 -111.34206 39915 ft 459 kts 307°
2026-05-06 02:57 40.54251 -111.41032 39929 ft 458 kts 307°
2026-05-06 02:58 40.57959 -111.47856 39913 ft 459 kts 307°
2026-05-06 02:58 40.61668 -111.54704 39916 ft 459 kts 307°
2026-05-06 02:59 40.65375 -111.61564 39929 ft 460 kts 307°
2026-05-06 02:59 40.69106 -111.68425 39888 ft 460 kts 307°
2026-05-06 03:00 40.72805 -111.75294 39883 ft 460 kts 307°
2026-05-06 03:00 40.76464 -111.82126 39871 ft 457 kts 307°
2026-05-06 03:01 40.80122 -111.88987 39864 ft 458 kts 307°
2026-05-06 03:01 40.83793 -111.95877 39867 ft 460 kts 307°
2026-05-06 03:02 40.87784 -112.02452 39871 ft 457 kts 313°
2026-05-06 03:02 40.92027 -112.08678 39873 ft 455 kts 314°
2026-05-06 03:03 40.96259 -112.14910 39874 ft 455 kts 314°
2026-05-06 03:03 41.00463 -112.21158 39875 ft 454 kts 314°
2026-05-06 03:04 41.04650 -112.27413 39883 ft 454 kts 314°
2026-05-06 03:04 41.08814 -112.33629 39883 ft 453 kts 314°
2026-05-06 03:05 41.13024 -112.39850 39884 ft 453 kts 314°
2026-05-06 03:05 41.17210 -112.46090 39888 ft 453 kts 314°
2026-05-06 03:06 41.21384 -112.52345 39882 ft 452 kts 314°
2026-05-06 03:06 41.25551 -112.58609 39880 ft 452 kts 314°
2026-05-06 03:07 41.29711 -112.64879 39879 ft 452 kts 314°
2026-05-06 03:07 41.33864 -112.71153 39879 ft 452 kts 314°
2026-05-06 03:08 41.38011 -112.77430 39879 ft 451 kts 314°
2026-05-06 03:08 41.42153 -112.83713 39880 ft 451 kts 314°
2026-05-06 03:09 41.46293 -112.90008 39879 ft 451 kts 314°
2026-05-06 03:09 41.50429 -112.96309 39878 ft 452 kts 314°
2026-05-06 03:10 41.54565 -113.02624 39879 ft 452 kts 314°
2026-05-06 03:10 41.58699 -113.08949 39882 ft 452 kts 315°
2026-05-06 03:11 41.62823 -113.15272 39884 ft 451 kts 315°
2026-05-06 03:11 41.66947 -113.21608 39884 ft 451 kts 315°
2026-05-06 03:12 41.71061 -113.27943 39887 ft 451 kts 315°
2026-05-06 03:12 41.75143 -113.34241 39887 ft 450 kts 315°
2026-05-06 03:13 41.79263 -113.40613 39886 ft 450 kts 315°
2026-05-06 03:13 41.83331 -113.46917 39886 ft 449 kts 315°
2026-05-06 03:14 41.87415 -113.53258 39884 ft 449 kts 315°
2026-05-06 03:14 41.91498 -113.59611 39883 ft 449 kts 315°
2026-05-06 03:15 41.95575 -113.65970 39881 ft 449 kts 315°
2026-05-06 03:15 41.99644 -113.72328 39877 ft 449 kts 315°
2026-05-06 03:16 42.03709 -113.78695 39874 ft 448 kts 315°
2026-05-06 03:16 42.07766 -113.85064 39872 ft 448 kts 315°
2026-05-06 03:17 42.11818 -113.91438 39872 ft 448 kts 315°
2026-05-06 03:17 42.15873 -113.97830 39871 ft 448 kts 315°
2026-05-06 03:18 42.19921 -114.04225 39873 ft 448 kts 315°
2026-05-06 03:18 42.23969 -114.10633 39874 ft 448 kts 315°
2026-05-06 03:19 42.28015 -114.17030 39874 ft 448 kts 315°
2026-05-06 03:19 42.32061 -114.23418 39876 ft 448 kts 315°
2026-05-06 03:20 42.38091 -114.33059 39878 ft 447 kts 315°
2026-05-06 03:20 42.42098 -114.39488 39879 ft 447 kts 315°
2026-05-06 03:21 42.46105 -114.45922 39880 ft 446 kts 315°
2026-05-06 03:21 42.50131 -114.52324 39880 ft 446 kts 316°
2026-05-06 03:22 42.54193 -114.58579 39877 ft 445 kts 316°
2026-05-06 03:22 42.58259 -114.64881 39872 ft 444 kts 316°
2026-05-06 03:23 42.62324 -114.71211 39868 ft 444 kts 316°
2026-05-06 03:23 42.66381 -114.77548 39864 ft 445 kts 316°
2026-05-06 03:24 42.70436 -114.83896 39859 ft 444 kts 316°
2026-05-06 03:24 42.74526 -114.90204 39853 ft 445 kts 316°
2026-05-06 03:25 42.78595 -114.96534 39851 ft 444 kts 316°
2026-05-06 03:25 42.82646 -115.02872 39851 ft 444 kts 316°
2026-05-06 03:26 42.86692 -115.09228 39850 ft 444 kts 316°
2026-05-06 03:26 42.90733 -115.15592 39848 ft 443 kts 316°
2026-05-06 03:27 42.94766 -115.21958 39848 ft 443 kts 316°
2026-05-06 03:27 42.98790 -115.28325 39846 ft 443 kts 316°
2026-05-06 03:28 43.02816 -115.34708 39842 ft 443 kts 316°
2026-05-06 03:28 43.06835 -115.41095 39841 ft 443 kts 316°
2026-05-06 03:29 43.10847 -115.47485 39841 ft 442 kts 316°
2026-05-06 03:29 43.14851 -115.53876 39839 ft 442 kts 316°
2026-05-06 03:30 43.18857 -115.60284 39837 ft 442 kts 316°
2026-05-06 03:30 43.22856 -115.66696 39837 ft 442 kts 316°
2026-05-06 03:31 43.26845 -115.73106 39839 ft 442 kts 316°
2026-05-06 03:31 43.30826 -115.79516 39843 ft 441 kts 316°
2026-05-06 03:32 43.34802 -115.85922 39848 ft 441 kts 316°
2026-05-06 03:32 43.38795 -115.92318 39857 ft 440 kts 316°
2026-05-06 03:33 43.42725 -115.98701 39863 ft 440 kts 316°
2026-05-06 03:33 43.46676 -116.05144 39873 ft 440 kts 316°
2026-05-06 03:34 43.50605 -116.11565 39871 ft 437 kts 316°
2026-05-06 03:34 43.53863 -116.16887 39870 ft 437 kts 316°
2026-05-06 03:35 43.58133 -116.22859 39870 ft 433 kts 323°
2026-05-06 03:35 43.62651 -116.28330 39871 ft 431 kts 324°
2026-05-06 03:36 43.67132 -116.33749 39877 ft 431 kts 323°
2026-05-06 03:36 43.71623 -116.39238 39882 ft 431 kts 323°
2026-05-06 03:37 43.76107 -116.44749 39886 ft 431 kts 323°
2026-05-06 03:37 43.80585 -116.50272 39886 ft 431 kts 323°
2026-05-06 03:38 43.85093 -116.55761 39888 ft 431 kts 323°
2026-05-06 03:38 43.89587 -116.61268 39889 ft 431 kts 323°
2026-05-06 03:39 43.94071 -116.66795 39891 ft 432 kts 323°
2026-05-06 03:39 43.98555 -116.72343 39892 ft 432 kts 323°
2026-05-06 03:40 44.03034 -116.77902 39891 ft 431 kts 323°
2026-05-06 03:40 44.07502 -116.83460 39894 ft 430 kts 323°
2026-05-06 03:41 44.11960 -116.89017 39893 ft 430 kts 323°
2026-05-06 03:41 44.16413 -116.94581 39894 ft 431 kts 323°
2026-05-06 03:42 44.20869 -117.00161 39896 ft 431 kts 323°
2026-05-06 03:42 44.25318 -117.05744 39903 ft 430 kts 323°
2026-05-06 03:43 44.29760 -117.11329 39909 ft 430 kts 323°
2026-05-06 03:43 44.34199 -117.16922 39917 ft 430 kts 323°
2026-05-06 03:44 44.38633 -117.22522 39928 ft 430 kts 323°
2026-05-06 03:44 44.43066 -117.28131 39942 ft 430 kts 323°
2026-05-06 03:45 44.47506 -117.33762 39955 ft 430 kts 323°
2026-05-06 03:45 44.51938 -117.39395 39964 ft 431 kts 323°
2026-05-06 03:46 44.56372 -117.45043 39972 ft 430 kts 323°
2026-05-06 03:46 44.60769 -117.50655 39979 ft 430 kts 323°
2026-05-06 03:47 44.65186 -117.56306 39984 ft 430 kts 323°
2026-05-06 03:47 44.69604 -117.61968 39986 ft 430 kts 323°
2026-05-06 03:48 44.74018 -117.67640 39989 ft 430 kts 323°
2026-05-06 03:48 44.78428 -117.73317 39990 ft 430 kts 323°
2026-05-06 03:49 44.82837 -117.79005 39990 ft 430 kts 323°
2026-05-06 03:49 44.87244 -117.84704 39990 ft 430 kts 323°
2026-05-06 03:50 44.91642 -117.90403 39991 ft 430 kts 323°
2026-05-06 03:50 44.96053 -117.96132 39990 ft 430 kts 322°
2026-05-06 03:51 45.00452 -118.01858 39989 ft 430 kts 322°
2026-05-06 03:51 45.04858 -118.07605 39989 ft 431 kts 322°
2026-05-06 03:52 45.09227 -118.13316 39989 ft 432 kts 322°
2026-05-06 03:52 45.13676 -118.19145 39989 ft 431 kts 322°
2026-05-06 03:53 45.18072 -118.24918 39990 ft 431 kts 322°
2026-05-06 03:53 45.22470 -118.30705 39995 ft 431 kts 322°
2026-05-06 03:54 45.26866 -118.36503 40001 ft 432 kts 322°
2026-05-06 03:54 45.31263 -118.42315 40007 ft 432 kts 322°
2026-05-06 03:55 45.35658 -118.48137 40009 ft 432 kts 322°
2026-05-06 03:55 45.40045 -118.53962 40012 ft 432 kts 322°
2026-05-06 03:56 45.44406 -118.59764 40011 ft 432 kts 322°
2026-05-06 03:56 45.48833 -118.65620 40001 ft 432 kts 322°
2026-05-06 03:57 45.53221 -118.71470 39982 ft 432 kts 322°
2026-05-06 03:57 45.57567 -118.77310 39958 ft 432 kts 321°
2026-05-06 03:58 45.61941 -118.83205 39941 ft 432 kts 321°
2026-05-06 03:58 45.66312 -118.89103 39932 ft 432 kts 321°
2026-05-06 03:59 45.70617 -118.95110 39931 ft 434 kts 318°
2026-05-06 03:59 45.74566 -119.01661 39920 ft 436 kts 315°
2026-05-06 04:00 45.78448 -119.08357 39906 ft 437 kts 315°
2026-05-06 04:00 45.82359 -119.15044 39891 ft 438 kts 315°
2026-05-06 04:01 45.86277 -119.21728 39882 ft 438 kts 315°
2026-05-06 04:01 45.90195 -119.28418 39881 ft 438 kts 315°
2026-05-06 04:02 45.94135 -119.35086 39882 ft 438 kts 315°
2026-05-06 04:02 45.98076 -119.41763 39884 ft 438 kts 315°
2026-05-06 04:03 46.02030 -119.48440 39885 ft 438 kts 315°
2026-05-06 04:03 46.05943 -119.55159 39897 ft 437 kts 315°
2026-05-06 04:04 46.09836 -119.61886 39900 ft 438 kts 315°
2026-05-06 04:04 46.13705 -119.68588 39899 ft 438 kts 315°
2026-05-06 04:05 46.17606 -119.75347 39892 ft 438 kts 315°
2026-05-06 04:05 46.21512 -119.82107 39893 ft 438 kts 315°
2026-05-06 04:06 46.25411 -119.88887 39894 ft 438 kts 315°
2026-05-06 04:06 46.29298 -119.95670 39897 ft 439 kts 315°
2026-05-06 04:07 46.33187 -120.02474 39899 ft 439 kts 314°
2026-05-06 04:07 46.37074 -120.09276 39903 ft 438 kts 315°
2026-05-06 04:08 46.40990 -120.16058 39904 ft 439 kts 314°
2026-05-06 04:08 46.44873 -120.22900 39906 ft 439 kts 314°
2026-05-06 04:09 46.48748 -120.29763 39907 ft 440 kts 314°
2026-05-06 04:09 46.52623 -120.36643 39907 ft 440 kts 314°
2026-05-06 04:10 46.54562 -120.40085 39636 ft 439 kts 314°
2026-05-06 04:10 46.56486 -120.43502 39068 ft 436 kts 313°
2026-05-06 04:10 46.58325 -120.47013 38334 ft 438 kts 310°
2026-05-06 04:10 46.60052 -120.50596 37578 ft 438 kts 309°
2026-05-06 04:11 46.61784 -120.54314 36774 ft 439 kts 309°
2026-05-06 04:11 46.63515 -120.57974 35959 ft 439 kts 309°
2026-05-06 04:11 46.65272 -120.61612 35156 ft 439 kts 309°
2026-05-06 04:11 46.67016 -120.65259 34361 ft 439 kts 308°
2026-05-06 04:12 46.68730 -120.68868 33561 ft 440 kts 308°
2026-05-06 04:12 46.70471 -120.72546 32724 ft 444 kts 308°
2026-05-06 04:12 46.72293 -120.76405 31975 ft 465 kts 308°
2026-05-06 04:12 46.74129 -120.80299 31258 ft 465 kts 307°
2026-05-06 04:13 46.75950 -120.84167 30557 ft 459 kts 307°
2026-05-06 04:13 46.77743 -120.87974 29878 ft 453 kts 307°
2026-05-06 04:13 46.79515 -120.91736 29209 ft 447 kts 307°
2026-05-06 04:13 46.81266 -120.95459 28555 ft 442 kts 307°
2026-05-06 04:14 46.82971 -120.99088 27917 ft 436 kts 307°
2026-05-06 04:14 46.84673 -121.02716 27279 ft 431 kts 307°
2026-05-06 04:14 46.86357 -121.06316 26644 ft 426 kts 307°
2026-05-06 04:14 46.88018 -121.09872 26019 ft 422 kts 307°
2026-05-06 04:15 46.89668 -121.13385 25400 ft 417 kts 308°
2026-05-06 04:15 46.91321 -121.16835 24787 ft 412 kts 308°
2026-05-06 04:15 46.92943 -121.20268 24177 ft 408 kts 308°
2026-05-06 04:15 46.94536 -121.23676 23567 ft 404 kts 307°
2026-05-06 04:16 46.96110 -121.27064 22959 ft 400 kts 307°
2026-05-06 04:16 46.97667 -121.30425 22356 ft 396 kts 307°
2026-05-06 04:16 46.99206 -121.33752 21759 ft 393 kts 307°
2026-05-06 04:16 47.00729 -121.37050 21175 ft 389 kts 307°
2026-05-06 04:17 47.02239 -121.40322 20595 ft 385 kts 307°
2026-05-06 04:17 47.03723 -121.43540 20272 ft 375 kts 307°
2026-05-06 04:17 47.05152 -121.46637 20147 ft 360 kts 307°
2026-05-06 04:17 47.06528 -121.49618 19995 ft 346 kts 307°
2026-05-06 04:18 47.07852 -121.52494 19801 ft 335 kts 307°
2026-05-06 04:18 47.09163 -121.55300 19339 ft 333 kts 307°
2026-05-06 04:18 47.10465 -121.58106 18853 ft 332 kts 307°
2026-05-06 04:18 47.11754 -121.60904 18385 ft 330 kts 307°
2026-05-06 04:19 47.13027 -121.63680 17925 ft 328 kts 307°
2026-05-06 04:19 47.14298 -121.66460 17479 ft 326 kts 307°
2026-05-06 04:19 47.15541 -121.69181 17286 ft 316 kts 307°
2026-05-06 04:19 47.16782 -121.71901 16858 ft 331 kts 306°
2026-05-06 04:20 47.18085 -121.74757 16379 ft 340 kts 306°
2026-05-06 04:20 47.19402 -121.77638 15898 ft 338 kts 306°
2026-05-06 04:20 47.20706 -121.80501 15425 ft 335 kts 306°
2026-05-06 04:20 47.21997 -121.83313 15136 ft 327 kts 306°
2026-05-06 04:21 47.23238 -121.85993 14888 ft 320 kts 306°
2026-05-06 04:21 47.24505 -121.88757 14641 ft 320 kts 306°
2026-05-06 04:21 47.25328 -121.90565 14477 ft 321 kts 306°
2026-05-06 04:21 47.26981 -121.94209 14149 ft 319 kts 306°
2026-05-06 04:22 47.27794 -121.96004 13992 ft 318 kts 306°
2026-05-06 04:22 47.29432 -121.99628 13663 ft 317 kts 305°
2026-05-06 04:22 47.30238 -122.01415 13505 ft 316 kts 305°
2026-05-06 04:23 47.32669 -122.06807 13021 ft 314 kts 305°
2026-05-06 04:23 47.33869 -122.09469 12806 ft 308 kts 305°
2026-05-06 04:23 47.35038 -122.12062 12563 ft 299 kts 305°
2026-05-06 04:23 47.36168 -122.14570 12366 ft 289 kts 305°
2026-05-06 04:24 47.37492 -122.16743 12157 ft 286 kts 325°
2026-05-06 04:24 47.39311 -122.17866 12083 ft 286 kts 346°
2026-05-06 04:24 47.41166 -122.18237 11939 ft 287 kts 353°
2026-05-06 04:24 47.43155 -122.18412 11800 ft 286 kts 356°
2026-05-06 04:25 47.45146 -122.18470 11652 ft 286 kts 358°
2026-05-06 04:25 47.47134 -122.18481 11509 ft 284 kts 358°
2026-05-06 04:25 47.49090 -122.18489 11361 ft 285 kts 358°
2026-05-06 04:25 47.51079 -122.18490 11152 ft 286 kts 358°
2026-05-06 04:26 47.53054 -122.18495 10737 ft 281 kts 358°
2026-05-06 04:26 47.55007 -122.18507 10584 ft 282 kts 358°
2026-05-06 04:26 47.56966 -122.18503 10447 ft 278 kts 358°
2026-05-06 04:26 47.58886 -122.18508 10245 ft 275 kts 358°
2026-05-06 04:27 47.60784 -122.18509 9794 ft 270 kts 358°
2026-05-06 04:27 47.62657 -122.18513 9098 ft 269 kts 358°
2026-05-06 04:27 47.64505 -122.18518 8585 ft 259 kts 358°
2026-05-06 04:27 47.66212 -122.18521 8457 ft 235 kts 358°
2026-05-06 04:28 47.67798 -122.18511 8152 ft 220 kts 358°
2026-05-06 04:28 47.69318 -122.18504 7628 ft 217 kts 358°
2026-05-06 04:28 47.70819 -122.18495 7310 ft 214 kts 358°
2026-05-06 04:28 47.72299 -122.18589 7078 ft 213 kts 347°
2026-05-06 04:29 47.73560 -122.19643 6739 ft 207 kts 314°
2026-05-06 04:29 47.74296 -122.21409 6362 ft 197 kts 298°
2026-05-06 04:29 47.74842 -122.23217 5982 ft 191 kts 296°
2026-05-06 04:29 47.75367 -122.25035 5596 ft 189 kts 295°
2026-05-06 04:30 47.75771 -122.26889 5219 ft 190 kts 276°
2026-05-06 04:30 47.75418 -122.28720 5073 ft 192 kts 240°
2026-05-06 04:30 47.74401 -122.30005 5017 ft 194 kts 216°
2026-05-06 04:30 47.73154 -122.30807 5009 ft 197 kts 202°
2026-05-06 04:31 47.71798 -122.31228 5015 ft 200 kts 193°
2026-05-06 04:31 47.70412 -122.31483 5015 ft 201 kts 187°
2026-05-06 04:31 47.68999 -122.31583 4800 ft 200 kts 184°
2026-05-06 04:31 47.67610 -122.31606 4527 ft 199 kts 182°
2026-05-06 04:32 47.66233 -122.31615 4258 ft 197 kts 181°
2026-05-06 04:32 47.64884 -122.31624 3993 ft 189 kts 181°
2026-05-06 04:32 47.63620 -122.31635 3745 ft 180 kts 181°
2026-05-06 04:32 47.62386 -122.31645 3511 ft 174 kts 181°
2026-05-06 04:33 47.61182 -122.31656 3282 ft 173 kts 181°
2026-05-06 04:33 47.59982 -122.31666 3058 ft 172 kts 181°
2026-05-06 04:33 47.58786 -122.31677 2829 ft 171 kts 181°
2026-05-06 04:33 47.57600 -122.31687 2603 ft 170 kts 181°
2026-05-06 04:34 47.56424 -122.31698 2380 ft 168 kts 181°
2026-05-06 04:34 47.55262 -122.31708 2189 ft 166 kts 180°
2026-05-06 04:34 47.54108 -122.31718 1945 ft 166 kts 180°
2026-05-06 04:34 47.52975 -122.31728 1740 ft 157 kts 180°
2026-05-06 04:35 47.51899 -122.31737 1517 ft 152 kts 180°
2026-05-06 04:35 47.50856 -122.31746 1318 ft 148 kts 180°
2026-05-06 04:35 47.49836 -122.31755 1119 ft 145 kts 180°
2026-05-06 04:35 47.48819 -122.31756 893 ft 149 kts 179°
2026-05-06 04:36 47.47768 -122.31768 724 ft 153 kts 181°
2026-05-06 04:36 47.46703 -122.31781 524 ft 153 kts 181°
2026-05-06 04:36 47.45665 -122.31791 448 ft 141 kts 180°
2026-05-06 04:36 47.44861 -122.31802 447 ft 84 kts 180°
2026-05-06 04:37 47.44612 -122.31765 447 ft 15 kts 146°
2026-05-06 04:37 47.44527 -122.31690 447 ft 14 kts 150°
2026-05-06 04:37 47.44411 -122.31592 447 ft 20 kts 150°
2026-05-06 04:37 47.44299 -122.31485 447 ft 19 kts 138°
2026-05-06 04:38 47.44233 -122.31363 447 ft 12 kts 146°
2026-05-06 04:38 47.44128 -122.31364 447 ft 16 kts 181°
2026-05-06 04:38 47.44009 -122.31363 447 ft 17 kts 179°
2026-05-06 04:38 47.43893 -122.31361 447 ft 16 kts 175°
2026-05-06 04:39 47.43813 -122.31274 447 ft 15 kts 101°
2026-05-06 04:39 47.43810 -122.31122 447 ft 14 kts 91°
2026-05-06 04:39 47.43809 -122.30980 447 ft 13 kts 90°
2026-05-06 04:39 47.43808 -122.30828 447 ft 19 kts 90°
2026-05-06 04:40 47.43814 -122.30652 447 ft 13 kts 50°
2026-05-06 04:40 47.43904 -122.30638 447 ft 13 kts
2026-05-06 04:40 47.43991 -122.30638 447 ft 12 kts 360°
2026-05-06 04:40 47.44073 -122.30638 447 ft 11 kts 360°
2026-05-06 04:41 47.44149 -122.30639 447 ft 11 kts 360°
2026-05-06 04:41 47.44237 -122.30638 447 ft 20 kts
2026-05-06 04:41 47.44388 -122.30637 447 ft 21 kts
2026-05-06 04:41 47.44538 -122.30636 447 ft 25 kts
2026-05-06 04:42 47.44700 -122.30634 447 ft 22 kts
2026-05-06 04:42 47.44848 -122.30631 447 ft 20 kts
2026-05-06 04:42 47.44984 -122.30625 447 ft 19 kts 13°
2026-05-06 04:42 47.45086 -122.30511 447 ft 18 kts 18°
2026-05-06 04:43 47.45211 -122.30508 447 ft 17 kts 358°
2026-05-06 04:43 47.45329 -122.30510 447 ft 17 kts 360°
2026-05-06 04:43 47.45348 -122.30510 447 ft 1 kts 360°
2026-05-06 04:43 47.45334 -122.30510 447 ft 3 kts 360°
2026-05-06 04:44 47.45315 -122.30510 447 ft 3 kts 360°
2026-05-06 04:44 47.45294 -122.30510 447 ft 3 kts 360°
2026-05-06 04:44 47.45274 -122.30510 447 ft 3 kts 360°
2026-05-06 04:44 47.45253 -122.30509 447 ft 3 kts 360°
2026-05-06 04:45 47.45233 -122.30509 447 ft 3 kts 360°
2026-05-06 04:45 47.45212 -122.30509 447 ft 3 kts 360°
2026-05-06 04:45 47.45191 -122.30509 447 ft 3 kts 360°
2026-05-06 04:45 47.45190 -122.30509 447 ft 1 kts
2026-05-06 04:46 47.45195 -122.30504 447 ft 1 kts 38°
2026-05-06 04:46 47.45192 -122.30493 447 ft 3 kts 115°
2026-05-06 04:46 47.45185 -122.30417 447 ft 7 kts 94°
2026-05-06 04:46 47.45185 -122.30378 447 ft 1 kts 90°
2026-05-06 04:47 47.45185 -122.30366 447 ft 1 kts 90°
2026-05-06 04:47 47.45185 -122.30365 447 ft 0 kts 90°